Regional Weather Roundup
Issued by NWS

Home | Current Version | Previous Version | Graphics & Text | Print | Product List | Glossary On
Versions: 1 2 3 4 5 6 7 8 9 10 11 12 13 14 15 16 17 18 19 20 21 22 23 24 25 26 27 28 29 30 31 32 33 34 35 36 37 38 39 40 41 42 43 44 45 46 47 48 49 50
000
ASUS43 KMKX 201400
RWRWI

WISCONSIN REGIONAL WEATHER ROUNDUP
NATIONAL WEATHER SERVICE MILWAUKEE/SULLIVAN WI
900 AM CDT WED AUG 20 2014

NOTE: "FAIR" INDICATES FEW OR NO CLOUDS BELOW 12,000 FEET WITH NO
SIGNIFICANT WEATHER AND/OR OBSTRUCTIONS TO VISIBILITY.

WIZ001-002-006>008-014>016-023>028-201500-
NORTHWEST WISCONSIN

CITY           SKY/WX    TMP DP  RH WIND       PRES   REMARKS
SUPERIOR ARPT  CLOUDY    62  61  94 CALM      29.88R
ASHLAND        CLOUDY    62  59  90 S3        29.90R
HAYWARD        CLOUDY    62  60  93 NE6       29.89R
SIREN          CLOUDY    61  61  98 E5        29.88R
RICE LAKE      CLOUDY    63  59  89 CALM      29.91R
LADYSMITH      CLOUDY    62  59  91 N6        29.90R
EAU CLAIRE     NOT AVBL
MENOMONIE      CLOUDY    64  61  89 SE5       29.91R
NEW RICHMOND   CLOUDY    61  61 100 SE5       29.89R FOG
OSCEOLA        CLOUDY    62  62 100 E3        29.91R
$$

WIZ003>005-009-010-017-018-201500-
NORTH CENTRAL WISCONSIN

CITY           SKY/WX    TMP DP  RH WIND       PRES   REMARKS
WOODRUFF       CLOUDY    60  57  92 CALM      29.89R
RHINELANDER    CLOUDY    60  57  89 NW6       29.90R
EAGLE RIVER    CLOUDY    59  57  94 N5        29.88R
LAND O LAKES   CLOUDY    59  57  94 NW3       29.89S
PHILLIPS       CLOUDY    59  57  94 N3        29.88S
TOMAHAWK       CLOUDY    60  58  94 NW5       29.89R
MEDFORD        CLOUDY    59  58  97 N6        29.88R
MERRILL        CLOUDY    61  60  95 N5        29.87R
$$

WIZ029-030-035-036-043>047-201500-
CENTRAL WISCONSIN

CITY           SKY/WX    TMP DP  RH WIND       PRES   REMARKS
WAUSAU         CLOUDY    63  59  87 NW7       29.86R
MOSINEE        CLOUDY    61  61 100 NW3       29.89R
MARSHFIELD     CLOUDY    61  60  97 N3        29.88S FOG
STEVENS POINT  CLOUDY    58  58  97 W3        29.88R FOG
WAUPACA        CLOUDY    66  63  90 N5        29.88R
WAUTOMA        CLOUDY    66  64  94 CALM      29.87R FOG
WISC RAPIDS    CLOUDY    64  61  90 NW6       29.89R
CAMP DOUGLAS   NOT AVBL
$$

WIZ011>013-019>022-031-037>040-048>050-201500-
NORTHEAST WISCONSIN

CITY           SKY/WX    TMP DP  RH WIND       PRES   REMARKS
ANTIGO         CLOUDY    60  59  96 NW8       29.87R
STURGEON BAY   CLOUDY    64  59  82 N8        29.84R
GREEN BAY      PTSUNNY   68  62  81 NW7       29.85R
MANITOWOC      NOT AVBL
APPLETON       NOT AVBL
CLINTONVILLE   MOSUNNY   64  59  82 N6        29.85R
OSHKOSH        PTSUNNY   70  63  78 CALM      29.86R
$$

WIZ032>034-041-042-053>061-201500-
SOUTHWEST WISCONSIN

CITY           SKY/WX    TMP DP  RH WIND       PRES   REMARKS
LA CROSSE      CLOUDY    67  65  93 VRB3      29.86F FOG
SPARTA         FOG       62  62  98 CALM      29.89R VSB 1/2
VIROQUA        FAIR      68  67  98 CALM      29.88S
BOSCOBEL       FOG       67  65  93 CALM      29.87R VSB 3/4
PRAIRIE DU CHI FOG       66  65  95 CALM      29.87R VSB 3/4
PLATTEVILLE    FAIR      69  67  91 SW5       29.90R
$$

WIZ056-057-062-063-064-067-068-201500-
SOUTH CENTRAL WISCONSIN

CITY           SKY/WX    TMP DP  RH WIND       PRES   REMARKS
BARABOO/DELLS  SUNNY     69  62  79 CALM      29.88R
LONE ROCK      FOG       67  64  90 S3        29.87R VSB 3/4
WATERTOWN      SUNNY     68  65  90 W3        29.86R
MADISON        MOSUNNY   74  64  71 VRB3      29.86S
MIDDLETON      FAIR      73  69  87 CALM      29.88R
MONROE         SUNNY     72  64  78 CALM      29.88R
JANESVILLE     SUNNY     73  63  68 CALM      29.87R
$$

WIZ051-052-058>065-066-070>072-201500-
SOUTHEAST WISCONSIN

CITY           SKY/WX    TMP DP  RH WIND       PRES   REMARKS
MILWAUKEE      MOSUNNY   73  63  70 W7        29.86R
WAUKESHA       SUNNY     68  63  83 W5        29.88
MILWAUKEE/TIMM SUNNY     72  61  68 W6        29.86R
RACINE         SUNNY     73  64  73 VRB5      29.88R
BURLINGTON     SUNNY     68  65  89 SW3       29.87R
KENOSHA        SUNNY     73  67  81 W7        29.87R
FOND DU LAC    MOSUNNY   69  62  78 CALM      29.86R
SHEBOYGAN      MOSUNNY   68  63  84 W6        29.85R
WEST BEND      SUNNY     68  61  77 NW3       29.86R
JUNEAU         SUNNY     68  40  36 SW7       29.87S
$$

LSZ147-162-201500-
LAKE SUPERIOR

STATION/POSITION TIME  TEMP    WIND        PRES    WAVE
                       AIR SEA DIR/SP/G            HT/PER
                 (UTC) (F)     (DEG/KT/KT) (MB)    (FT/S)
W MID LAKE BUOY  1250   58 57  260/  6/  6 1011.0R   1
DEVILS ISLAND    1300   60     230/  8/  9 1011.9R
PORT WING        1340   63     210/  2/  3 1012.2R
SAXON HARBOR     1340   61      CALM  /  3 1012.2R
$$

LMZ867-665-643>646-201500-
LAKE MICHIGAN

STATION/POSITION TIME  TEMP    WIND        PRES    WAVE
                       AIR SEA DIR/SP/G            HT/PER
                 (UTC) (F)     (DEG/KT/KT) (MB)    (FT/S)
N MID LAKE BUOY  1250   60 62  330/ 10/ 12 1008.7R   1/ 3
NORTHPORT PIER   1300   62     350/  9/ 12 1009.8R
SISTER BAY       1211   62     350/ 12/ 13   N/A
KEWAUNEE LAKESHO 1300   64     310/  4/  6 1009.0R
SHEBOYGAN LAKESH 1300   67 64  350/  2/  2 1010.1R
ATWATER BUOY     1300   68     350/  2     1011.6R
MILWAUKEE LAKESH 1300   71     260/  2/  3   N/A
S MID LAKE BUOY  1250   68 66  280/  4/  4 1010.3R   0
KENOSHA   LAKESH 1300   71     300/  4/  6 1010.5R
$$

TC  - TEMPERATURE IN CELSIUS
VSB - VISIBILITY IN STATUTE MILES
WCI - WIND CHILL INDEX
HX  - HEAT INDEX




USA.gov is the U.S. government's official web portal to all federal, state and local government web resources and services.